Regional Weather Roundup
Issued by NWS

Home | Current Version | Previous Version | Graphics & Text | Print | Product List | Glossary On
Versions: 1 2 3 4 5 6 7 8 9 10 11 12 13 14 15 16 17 18 19 20 21 22 23 24 25 26 27 28 29 30 31 32 33 34 35 36 37 38 39 40 41 42 43 44 45 46 47 48 49
000
ASUS45 KSLC 010710
RWRUT

UTAH REGIONAL WEATHER ROUNDUP
NATIONAL WEATHER SERVICE SALT LAKE CITY UT
100 AM MDT WED APR 01 2015

UTZ001>011-023>025-010800-

NORTHERN UTAH

CITY           SKY/WX    TMP DP  RH WIND       PRES   REMARKS
BRIGHAM CITY   CLOUDY    51  26  37 N25G35    29.90R
HILL AFB       CLOUDY    50  30  46 N22G31    29.88R
LOGAN          CLEAR     49  28  44 N22G30    29.91R
OGDEN          CLOUDY    49  29  46 NW22G33   29.88R
PROVO AIRPORT  CLOUDY    61  34  36 NW12      29.81R
SALT LAKE CITY CLOUDY    55  34  45 NW24G32   29.87R
VERNAL         CLEAR     53  21  28 NW6       29.79R
WENDOVER       PTCLDY    48  27  43 NE25G31   29.95R
HEBER CITY     CLOUDY    54  30  40 NW13      29.85R
WEST JORDAN    PTCLDY    55  39  54 NW22G30   29.87R

$$

UTZ012>022-026-027-010800-

SOUTHERN/CENTRAL UTAH

CITY           SKY/WX    TMP DP  RH WIND       PRES   REMARKS
BLANDING       MOCLDY    56  22  27 SW5       30.01S
BRYCE CANYON   CLEAR     30  24  78 CALM      30.02F
CEDAR CITY     CLEAR     56  14  19 SW12      29.90F
DELTA          CLOUDY    62  10  13 N9        29.84R
HANKSVILLE     PTCLDY    52  19  28 CALM      29.83F
MILFORD        CLEAR     54  18  24 S17       29.86S
MOAB/CYNLANDS  CLEAR     55  19  24 SW12      29.80S
PRICE          PTCLDY    48  17  29 N8        29.84F
ST GEORGE      CLOUDY    63  25  23 SE7       29.83S
KANAB          CLEAR     43  27  52 CALM      29.96S

$$

REGIONAL REPORTS     COLORADO/ARIZONA

CITY           SKY/WX    TMP DP  RH WIND       PRES   REMARKS
CRAIG, CO      MOCLDY    41  24  51 NE3       29.84F
GRAND JUNCTION PTCLDY    58  19  22 E12       29.82S
RIFLE          PTCLDY    47  22  37 CALM      29.85F
MONTROSE       MOCLDY    55  22  27 SE13      29.92F
CORTEZ         CLOUDY    59  23  25 CALM      29.97R
PAGE, AZ       CLEAR     64  24  21 S8        29.88F
GRAND CANYON   CLEAR     43  25  49 S3        30.06S
KINGMAN        CLEAR     68  24  19 SW20      29.90R
FLAGSTAFF      MOCLDY    46  26  45 S3        30.09F

$$

REGIONAL REPORTS    NEVADA/IDAHO/WYOMING

CITY           SKY/WX    TMP DP  RH WIND       PRES   REMARKS
LAS VEGAS, NV  CLEAR     73  17  12 S25G32    29.73F
ELY            MOCLDY    46  17  31 N8        30.02R
ELKO           PTCLDY    37  24  59 NW7       30.11R WCI  32
POCATELLO, ID  MOCLDY    42  22  44 SW24G37   29.98R
BURLEY         LGT RAIN  40  24  53 W21G29    30.01R WCI  30
EVANSTON, WY   MOCLDY    44  33  65 SW12      29.90S
ROCK SPRINGS   MOCLDY    46  23  40 W9        29.85S
KEMMERER       MOCLDY    45  30  57 SW17      29.86F

$$



USA.gov is the U.S. government's official web portal to all federal, state and local government web resources and services.